Resultados

1500 Electronico
Fecha Serie Viento Presión Humedad Temperatura
01-09-2018 Final_A
Puesto Andanivel Nombre Dia Mes Año Pais Marca
01 Vega Tomas 4 1 2002 CACHI - 4.11.28
02 Romero Matias 24 11 2001 JMCOR FMARP 4.12.45
03 Vega German 4 1 2002 CACHI - 4.13.57
04 Limberger Hernan 24 2 2001 CEFPR - 4.13.61
05 Sosa Jonathan Moises 31 1 2003 CEFPR - 4.18.68
06 Cordoba Joaquin 19 11 2001 JMCOR FMARP 4.18.69
07 Santoro Francesco 30 8 2002 JMCOR FMARP 4.19.74
08 Garay Francisco 14 9 2001 EMAB8 - 4.21.82
09 Brizuela Damian 14 5 2001 EMASR - 4.24.80
10 Nieva, David Alexander 31 1 2001 DEFEN ASOCA 4.28.18
11 Barrios Kevin 20 7 2001 UCYD ANSA 4.28.49
12 Zabala Santiago 23 8 2001 MORNI ARDA 4.29.88
13 Reddy Francisco 22 12 2003 EMAB8 - 4.33.56
14 Sciortino Joaquin 29 5 2003 CASAA ARDA 4.34.31
15 Benjamin Aguilar 6 11 2002 MSIFA - 4.35.24
16 Mendez Jonathan Ezequiel 7 2 2003 EMFOR - 4.39.97
17 Rodrigo Matias Castillo 17 2 2002 CTSC - 4.40.10
18 Castagna Lautaro Benjamin 15 12 2002 JMCOR FMARP 4.40.22
19 Tivani Luciano 18 10 2002 JMCOR FMARP 4.41.04
20 Ramirez Francisco Gabriel 13 6 2001 CTSC - 4.46.63
21 Fontana Facundo Abel 6 12 2001 VYR ASA 4.47.56
22 Mayoraz Carlos 25 8 2001 CASCM - 4.53.48
23 Marelli Fiser Agustin 14 6 2001 EMABJ - 5.00.57
24 Garcia Jose Carlos 4 6 2002 VYR ASA 5.03.41
25 Silvero Ivan Noel 23 10 2001 JMCOR FMARP 5.04.80
26 Mussi Alejo 25 5 2002 OAC FMARP 5.14.52
27 Aguilar Lautaro Matias 26 8 2003 EMAP - 5.37.18
99 Gordiola Lucioano Nahuel 9 5 2001 CTSC - DNS
99 Illescas Juan Carlos 11 2 2001 AMGAL - DNS
99 Ferreyra William 6 7 2001 EMACO ASCER DNS
99 Pavone Lautaro 23 03 2001 ISMOD - DNS
99 Peralta Benegas Derlis Ariel 28 4 2002 PAR - 4.29.30